Simultaneous Nadir Overpasses (SNOs) Predictions

Prediction of SNOs between METOP-C and LANDSAT-8 Satellite Orbit:

Table of predicted SNOs for the next 14.0 days since TLE Epoch: 8/1/2020
Index Date (METOP-C) Time (METOP-C) Lat,Lon (METOP-C) SZA (METOP-C ) Date (LANDSAT-8) Time (LANDSAT-8) Lat,Lon (LANDSAT-8) SZA (LANDSAT-8 ) Distance(km) Time Diff (sec)
1 08/02/2020 10:11:55 81.14, 67.21 65.56 08/02/2020 10:12:02 81.14, 67.39 65.58 3.10 7
2 08/02/2020 11:02:33 -81.16,-124.62 114.33 08/02/2020 11:01:28 -81.16,-124.68 114.37 1.13 65
3 08/05/2020 05:46:15 81.14, 133.68 66.32 08/05/2020 05:46:17 81.14, 133.75 66.32 1.20 2
4 08/05/2020 06:36:53 -81.17, -58.15 113.57 08/05/2020 06:35:43 -81.16, -58.29 113.62 2.57 70
5 08/08/2020 00:29:56 -81.12, 32.31 112.96 08/08/2020 00:31:07 -81.13, 32.40 112.92 1.67 71
6 08/08/2020 01:20:35 81.15,-159.49 67.16 08/08/2020 01:20:32 81.16,-159.54 67.15 0.94 3
7 08/10/2020 20:04:17 -81.13, 98.76 112.13 08/10/2020 20:05:23 -81.12, 98.75 112.11 0.24 66
8 08/10/2020 20:54:56 81.15, -93.05 67.99 08/10/2020 20:54:48 81.15, -93.22 67.96 2.99 8
9 08/13/2020 15:38:37 -81.14, 165.58 111.22 08/13/2020 15:39:38 -81.14, 165.45 111.21 2.26 61
